Torna al catalogo

COSMOS 2411

GLONASS

AttivoNavigazioneMEO
NORAD 28509·PAYLOAD·🇷🇺 Russia

Lanciato Dec 26, 2004 da Baikonur Cosmodrome

Loading…

Prossimi Passaggi (prossime 24 ore)

TLE

In scadenzaSource: Space-Track

Epoca: Aug 28, 2026, 13:00 UTC

1 28509U 04053B   26240.54225395  .00000015  00000-0  00000+0 0  9990
2 28509  64.2606  57.6418 0003314 234.0104 135.9254  2.13096827168660

Traccia COSMOS 2411 in tempo reale con AllMySat

Download on the App Store